Language: 


Des rapports , des résumés tant et plus, au choix de chacun....


Données Historiques de Météogheer
Journalier Rapport pour Juin 20, 2017 Unitée:  Métrique    Impériale   Les deux
Suivant Jour »
Journalier Hebdomadaire Mensuel Annuel Sur mesure
  Max: Min: Moyenne:
Température: 34.8 °C 0.0 °C 25.4 °C
Point de rosée: 21.0 °C 13.0 °C 16.9 °C
Humidité: 90% 0% 61%
Vent: 20.1km/h 0.0km/h 4.6km/h
Rafales: 736.9km/h - -
Vent- - SSE
Pression: 1018.2 hPa 0.0 hPa -
Pluie: 0.0 mm    
Historical Graphs
 
 
Données tabulaires pour Juin 20, 2017
Heure Température Point de rosée Pression Vent Vent Rafales Humidité Pluie Taux (Horaire) Conditions
00:01 20.6 °C 15.0 °C 1016.8 hPa Calm   4.0 km/h 71% 0.0 mm
00:06 20.4 °C 15.0 °C 1016.8 hPa Calm   5.5 km/h 71% 0.0 mm
00:11 20.2 °C 15.0 °C 1016.8 hPa Calm   6.9 km/h 72% 0.0 mm
00:16 20.1 °C 15.0 °C 1016.8 hPa North 4.0 km/h 6.9 km/h 72% 0.0 mm
00:21 20.0 °C 15.0 °C 1016.8 hPa Calm   7.6 km/h 72% 0.0 mm
00:26 20.0 °C 15.0 °C 1016.8 hPa North 6.1 km/h 7.6 km/h 73% 0.0 mm
00:31 19.9 °C 15.0 °C 1016.1 hPa North 2.1 km/h 7.6 km/h 74% 0.0 mm
00:36 19.8 °C 15.0 °C 1016.1 hPa NE 5.0 km/h 7.6 km/h 74% 0.0 mm
00:41 19.8 °C 15.0 °C 1016.1 hPa North 6.9 km/h 6.9 km/h 75% 0.0 mm
00:46 19.8 °C 15.0 °C 1016.8 hPa North 5.8 km/h 7.6 km/h 75% 0.0 mm
00:51 19.8 °C 15.0 °C 1016.8 hPa North 6.1 km/h 7.6 km/h 75% 0.0 mm
00:56 19.8 °C 15.0 °C 1016.8 hPa North 6.1 km/h 9.0 km/h 76% 0.0 mm
01:01 19.9 °C 16.0 °C 1016.8 hPa North 4.0 km/h 9.3 km/h 77% 0.0 mm
01:07 19.8 °C 16.0 °C 1016.8 hPa Calm   9.3 km/h 77% 0.0 mm
01:12 19.8 °C 16.0 °C 1016.8 hPa NNW 5.5 km/h 9.0 km/h 77% 0.0 mm
01:15 19.8 °C 16.0 °C 1016.8 hPa Calm   8.7 km/h 77% 0.0 mm
01:20 19.8 °C 16.0 °C 1016.1 hPa NNE 4.7 km/h 8.7 km/h 78% 0.0 mm
01:25 19.7 °C 16.0 °C 1016.1 hPa NNE 3.2 km/h 8.7 km/h 78% 0.0 mm
01:30 19.7 °C 16.0 °C 1016.1 hPa Calm   8.7 km/h 78% 0.0 mm
01:35 19.6 °C 16.0 °C 1016.8 hPa Calm   5.8 km/h 78% 0.0 mm
01:40 19.4 °C 15.0 °C 1016.8 hPa Calm   5.8 km/h 78% 0.0 mm
01:45 19.3 °C 15.0 °C 1016.8 hPa Calm   6.4 km/h 78% 0.0 mm
01:50 19.2 °C 16.0 °C 1016.8 hPa Calm   6.4 km/h 79% 0.0 mm
01:55 19.1 °C 16.0 °C 1016.8 hPa Calm   6.9 km/h 80% 0.0 mm
02:00 19.1 °C 16.0 °C 1016.8 hPa ENE 3.5 km/h 6.9 km/h 80% 0.0 mm
02:05 19.1 °C 16.0 °C 1016.8 hPa Calm   6.4 km/h 80% 0.0 mm
02:10 19.0 °C 16.0 °C 1016.8 hPa Calm   6.4 km/h 80% 0.0 mm
02:15 18.9 °C 16.0 °C 1016.8 hPa Calm   4.0 km/h 80% 0.0 mm
02:20 18.8 °C 15.0 °C 1016.8 hPa Calm   5.0 km/h 81% 0.0 mm
02:26 18.8 °C 16.0 °C 1016.8 hPa Calm   5.0 km/h 82% 0.0 mm
02:31 18.7 °C 16.0 °C 1016.8 hPa Calm   2.6 km/h 82% 0.0 mm
02:36 18.7 °C 16.0 °C 1016.8 hPa Calm   2.6 km/h 82% 0.0 mm
02:41 18.7 °C 16.0 °C 1016.8 hPa Calm   1.8 km/h 82% 0.0 mm
02:46 18.6 °C 16.0 °C 1016.8 hPa Calm   4.0 km/h 82% 0.0 mm
02:51 18.5 °C 16.0 °C 1016.8 hPa Calm   4.0 km/h 82% 0.0 mm
02:56 18.4 °C 15.0 °C 1016.8 hPa Calm     82% 0.0 mm
03:01 18.3 °C 15.0 °C 1016.8 hPa Calm     82% 0.0 mm
03:06 18.2 °C 15.0 °C 1016.8 hPa Calm   2.1 km/h 82% 0.0 mm
03:11 18.2 °C 15.0 °C 1016.8 hPa Calm   2.1 km/h 82% 0.0 mm
03:16 18.2 °C 15.0 °C 1016.8 hPa Calm     83% 0.0 mm
03:21 18.2 °C 15.0 °C 1016.8 hPa Calm   2.1 km/h 83% 0.0 mm
03:26 18.1 °C 15.0 °C 1016.8 hPa Calm   4.0 km/h 83% 0.0 mm
03:31 18.1 °C 15.0 °C 1016.8 hPa Calm   4.0 km/h 83% 0.0 mm
03:36 18.0 °C 15.0 °C 1016.8 hPa Calm   1.8 km/h 83% 0.0 mm
03:41 17.9 °C 15.0 °C 1016.8 hPa Calm   2.6 km/h 83% 0.0 mm
03:46 17.8 °C 15.0 °C 1016.8 hPa Calm   2.6 km/h 84% 0.0 mm
03:51 17.8 °C 15.0 °C 1016.8 hPa Calm     84% 0.0 mm
03:56 17.7 °C 15.0 °C 1016.8 hPa Calm     84% 0.0 mm
04:01 17.7 °C 15.0 °C 1016.8 hPa NNE 3.5 km/h 3.5 km/h 85% 0.0 mm
04:06 17.7 °C 15.0 °C 1016.8 hPa Calm   3.5 km/h 86% 0.0 mm
04:11 17.7 °C 15.0 °C 1016.8 hPa Calm   1.8 km/h 86% 0.0 mm
04:16 17.7 °C 15.0 °C 1016.8 hPa Calm     86% 0.0 mm
04:21 17.7 °C 15.0 °C 1016.8 hPa North 1.8 km/h 1.8 km/h 86% 0.0 mm
04:26 17.6 °C 15.0 °C 1016.8 hPa NNE 4.3 km/h 4.3 km/h 86% 0.0 mm
04:31 17.7 °C 16.0 °C 1016.8 hPa Calm   6.4 km/h 87% 0.0 mm
04:36 17.7 °C 16.0 °C 1016.8 hPa North 5.5 km/h 6.4 km/h 87% 0.0 mm
04:41 17.8 °C 16.0 °C 1016.8 hPa Calm   5.8 km/h 87% 0.0 mm
04:46 17.8 °C 16.0 °C 1016.8 hPa Calm   5.8 km/h 87% 0.0 mm
04:51 17.9 °C 16.0 °C 1016.8 hPa Calm   5.5 km/h 87% 0.0 mm
04:56 17.7 °C 15.0 °C 1016.8 hPa Calm     86% 0.0 mm
05:01 17.4 °C 15.0 °C 1016.1 hPa Calm     85% 0.0 mm
05:06 17.1 °C 15.0 °C 1016.1 hPa Calm   1.4 km/h 85% 0.0 mm
05:11 17.0 °C 15.0 °C 1016.1 hPa Calm   1.4 km/h 86% 0.0 mm
05:17 16.9 °C 15.0 °C 1016.1 hPa Calm     88% 0.0 mm
05:22 16.9 °C 15.0 °C 1016.1 hPa Calm     88% 0.0 mm
05:27 17.0 °C 15.0 °C 1016.1 hPa Calm   4.0 km/h 88% 0.0 mm
05:32 17.1 °C 15.0 °C 1016.1 hPa Calm   4.0 km/h 89% 0.0 mm
05:37 17.1 °C 15.0 °C 1016.1 hPa Calm   4.0 km/h 89% 0.0 mm
05:42 17.2 °C 16.0 °C 1016.1 hPa Calm   5.8 km/h 90% 0.0 mm
05:47 17.3 °C 16.0 °C 1016.1 hPa Calm   5.8 km/h 90% 0.0 mm
05:52 17.3 °C 16.0 °C 1016.1 hPa Calm   3.2 km/h 90% 0.0 mm
05:57 17.4 °C 16.0 °C 1016.1 hPa Calm   4.0 km/h 90% 0.0 mm
06:02 17.4 °C 16.0 °C 1016.1 hPa Calm   4.0 km/h 90% 0.0 mm
06:07 17.3 °C 16.0 °C 1016.1 hPa Calm     89% 0.0 mm
06:12 17.3 °C 16.0 °C 1016.1 hPa Calm     89% 0.0 mm
06:17 17.3 °C 16.0 °C 1016.1 hPa Calm     89% 0.0 mm
06:22 17.3 °C 16.0 °C 1016.1 hPa Calm     89% 0.0 mm
06:27 17.3 °C 16.0 °C 1016.1 hPa Calm     89% 0.0 mm
06:32 17.5 °C 16.0 °C 1016.1 hPa Calm     89% 0.0 mm
06:37 17.7 °C 16.0 °C 1016.1 hPa Calm     89% 0.0 mm
06:42 17.9 °C 16.0 °C 1016.1 hPa Calm     89% 0.0 mm
06:47 18.0 °C 16.0 °C 1016.8 hPa Calm     89% 0.0 mm
06:52 18.2 °C 16.0 °C 1016.8 hPa Calm     88% 0.0 mm
06:57 18.4 °C 17.0 °C 1016.8 hPa Calm     89% 0.0 mm
07:02 18.7 °C 17.0 °C 1016.1 hPa Calm     89% 0.0 mm
07:08 19.1 °C 17.0 °C 1016.1 hPa Calm     88% 0.0 mm
07:13 19.4 °C 17.0 °C 1016.1 hPa Calm     88% 0.0 mm
07:18 19.7 °C 18.0 °C 1016.8 hPa Calm     88% 0.0 mm
07:23 19.9 °C 18.0 °C 1016.8 hPa Calm     87% 0.0 mm
07:28 20.2 °C 18.0 °C 1016.8 hPa Calm     87% 0.0 mm
07:33 20.5 °C 18.0 °C 1016.8 hPa Calm     86% 0.0 mm
07:38 20.7 °C 18.0 °C 1016.8 hPa Calm     86% 0.0 mm
07:43 21.1 °C 19.0 °C 1016.8 hPa Calm     85% 0.0 mm
07:48 21.5 °C 19.0 °C 1016.8 hPa Calm     84% 0.0 mm
07:53 21.8 °C 19.0 °C 1016.8 hPa Calm     84% 0.0 mm
07:58 22.4 °C 20.0 °C 1016.8 hPa Calm     84% 0.0 mm
08:03 23.0 °C 20.0 °C 1016.8 hPa Calm   5.0 km/h 81% 0.0 mm
08:08 23.1 °C 20.0 °C 1016.8 hPa NE 1.4 km/h 5.0 km/h 80% 0.0 mm
08:13 23.2 °C 20.0 °C 1016.8 hPa Calm   7.9 km/h 79% 0.0 mm
08:18 23.1 °C 19.0 °C 1016.8 hPa NE 5.0 km/h 7.9 km/h 79% 0.0 mm
08:23 23.4 °C 19.0 °C 1016.8 hPa Calm   6.9 km/h 78% 0.0 mm
08:28 23.6 °C 20.0 °C 1016.8 hPa ENE 4.3 km/h 6.9 km/h 78% 0.0 mm
08:33 23.7 °C 20.0 °C 1016.8 hPa NE 6.9 km/h 6.9 km/h 77% 0.0 mm
08:38 23.9 °C 20.0 °C 1016.8 hPa Calm   6.9 km/h 77% 0.0 mm
08:43 24.2 °C 20.0 °C 1016.8 hPa Calm   5.5 km/h 76% 0.0 mm
08:48 24.6 °C 20.0 °C 1016.8 hPa Calm   2.1 km/h 76% 0.0 mm
08:53 25.2 °C 21.0 °C 1016.8 hPa Calm     75% 0.0 mm
08:58 25.6 °C 21.0 °C 1016.8 hPa Calm   1.8 km/h 73% 0.0 mm
09:03 25.9 °C 21.0 °C 1016.8 hPa Calm   4.7 km/h 72% 0.0 mm
09:09 26.1 °C 20.0 °C 1016.8 hPa North 6.4 km/h 7.9 km/h 70% 0.0 mm
09:14 26.4 °C 20.0 °C 1016.8 hPa Calm   7.9 km/h 69% 0.0 mm
09:19 26.9 °C 21.0 °C 1016.8 hPa North 1.4 km/h 4.3 km/h 69% 0.0 mm
09:24 27.2 °C 21.0 °C 1016.8 hPa Calm   4.3 km/h 67% 0.0 mm
09:29 27.6 °C 21.0 °C 1016.8 hPa NE 4.0 km/h 6.9 km/h 67% 0.0 mm
09:34 27.7 °C 21.0 °C 1016.8 hPa Calm   6.9 km/h 66% 0.0 mm
09:39 28.0 °C 21.0 °C 1016.8 hPa NE 1.8 km/h 6.1 km/h 66% 0.0 mm
09:44 28.2 °C 21.0 °C 1016.8 hPa Calm   7.6 km/h 63% 0.0 mm
09:49 28.1 °C 21.0 °C 1018.2 hPa Calm   7.6 km/h 63% 0.0 mm
09:54 28.4 °C 21.0 °C 1018.2 hPa Calm   9.7 km/h 63% 0.0 mm
09:59 28.5 °C 21.0 °C 1018.2 hPa NE 2.6 km/h 9.7 km/h 63% 0.0 mm
10:04 28.6 °C 21.0 °C 1016.8 hPa Calm   10.5 km/h 62% 0.0 mm
10:09 29.0 °C 21.0 °C 1016.8 hPa NNE 6.1 km/h 10.5 km/h 61% 0.0 mm
10:15 29.1 °C 21.0 °C 1016.8 hPa NW 6.9 km/h 9.0 km/h 60% 0.0 mm
10:20 29.0 °C 21.0 °C 1016.8 hPa Calm   9.0 km/h 59% 0.0 mm
10:25 29.2 °C 21.0 °C 1016.8 hPa Calm   9.0 km/h 59% 0.0 mm
10:30 29.4 °C 21.0 °C 1016.8 hPa Calm   9.0 km/h 59% 0.0 mm
10:35 29.8 °C 21.0 °C 1016.8 hPa North 4.7 km/h 10.5 km/h 58% 0.0 mm
10:40 29.8 °C 20.0 °C 1016.8 hPa Calm   11.9 km/h 57% 0.0 mm
10:45 29.9 °C 20.0 °C 1016.8 hPa NNE 3.5 km/h 13.0 km/h 56% 0.0 mm
10:50 30.0 °C 20.0 °C 1016.8 hPa NE 13.0 km/h 13.0 km/h 55% 0.0 mm
10:55 30.1 °C 20.0 °C 1016.8 hPa North 5.8 km/h 13.0 km/h 55% 0.0 mm
11:00 30.1 °C 20.0 °C 1016.8 hPa East 7.9 km/h 13.0 km/h 55% 0.0 mm
11:05 30.0 °C 20.0 °C 1016.8 hPa NE 10.1 km/h 13.0 km/h 53% 0.0 mm
11:10 30.1 °C 20.0 °C 1016.8 hPa North 5.5 km/h 13.7 km/h 53% 0.0 mm
11:15 30.4 °C 19.0 °C 1016.8 hPa NE 6.4 km/h 13.7 km/h 51% 0.0 mm
11:20 30.5 °C 19.0 °C 1016.8 hPa ENE 6.4 km/h 10.1 km/h 50% 0.0 mm
11:25 30.9 °C 20.0 °C 1016.8 hPa East 9.3 km/h 9.7 km/h 50% 0.0 mm
11:30 30.9 °C 19.0 °C 1016.8 hPa NE 12.6 km/h 12.6 km/h 48% 0.0 mm
11:35 31.0 °C 19.0 °C 1016.8 hPa Calm   12.6 km/h 47% 0.0 mm
11:41 31.5 °C 19.0 °C 1016.8 hPa NE 10.5 km/h 13.0 km/h 46% 0.0 mm
11:46 30.9 °C 18.0 °C 1016.1 hPa North 9.3 km/h 13.0 km/h 45% 0.0 mm
11:51 30.6 °C 18.0 °C 1016.1 hPa NE 6.4 km/h 11.9 km/h 45% 0.0 mm
11:56 30.9 °C 18.0 °C 1016.1 hPa NE 10.5 km/h 13.0 km/h 45% 0.0 mm
12:09 0.0 °C 18.0 °C 0.0 hPa ENE 13.0 km/h 13.0 km/h 0% 0.0 mm
12:14 31.3 °C 17.0 °C 1016.1 hPa NE 7.9 km/h 14.0 km/h 43% 0.0 mm
12:19 31.5 °C 18.0 °C 1016.1 hPa NE 5.8 km/h 14.0 km/h 44% 0.0 mm
12:24 32.0 °C 18.0 °C 1016.1 hPa NNE 4.3 km/h 13.7 km/h 42% 0.0 mm
12:29 32.2 °C 18.0 °C 1016.1 hPa SE 1.8 km/h 10.5 km/h 42% 0.0 mm
12:34 31.8 °C 17.0 °C 1016.1 hPa NE 10.5 km/h 10.5 km/h 42% 0.0 mm
12:39 32.0 °C 18.0 °C 1016.1 hPa NE 10.1 km/h 13.7 km/h 42% 0.0 mm
12:44 32.1 °C 17.0 °C 1016.1 hPa East 3.2 km/h 13.7 km/h 41% 0.0 mm
12:49 32.3 °C 17.0 °C 1016.8 hPa North 4.0 km/h 12.2 km/h 40% 0.0 mm
12:54 32.5 °C 18.0 °C 1016.8 hPa Calm   12.2 km/h 41% 0.0 mm
14:05 0.0 °C 18.0 °C 0.0 hPa Calm     0% 0.0 mm
14:10 33.8 °C 17.0 °C 1016.8 hPa North 5.0 km/h 11.9 km/h 36% 0.0 mm
14:15 34.0 °C 16.0 °C 1016.8 hPa North 9.3 km/h 12.6 km/h 34% 0.0 mm
14:20 34.0 °C 16.0 °C 1016.8 hPa Calm   13.0 km/h 33% 0.0 mm
14:25 34.0 °C 16.0 °C 1016.8 hPa North 11.6 km/h 13.0 km/h 33% 0.0 mm
14:29 34.1 °C 16.0 °C 1016.8 hPa NE 5.8 km/h 14.0 km/h 33% 0.0 mm
14:34 34.2 °C 16.0 °C 1016.8 hPa NW 4.0 km/h 14.0 km/h 34% 0.0 mm
14:39 34.4 °C 16.0 °C 1016.8 hPa ESE 2.1 km/h 10.5 km/h 33% 0.0 mm
14:44 34.8 °C 16.0 °C 1016.8 hPa NNW 4.0 km/h 9.7 km/h 32% 0.0 mm
14:45 34.8 °C 16.0 °C 1016.8 hPa North 5.5 km/h 9.7 km/h 32% 0.0 mm
14:50 34.5 °C 15.0 °C 1016.8 hPa East 4.7 km/h 13.7 km/h 31% 0.0 mm
14:55 34.3 °C 15.0 °C 1016.8 hPa North 6.4 km/h 13.7 km/h 31% 0.0 mm
15:00 34.3 °C 14.0 °C 1016.8 hPa ENE 6.4 km/h 14.0 km/h 30% 0.0 mm
15:05 34.5 °C 15.0 °C 1016.8 hPa East 4.3 km/h 14.0 km/h 31% 0.0 mm
15:10 34.7 °C 15.0 °C 1016.8 hPa NE 4.7 km/h 11.1 km/h 31% 0.0 mm
15:15 34.7 °C 15.0 °C 1016.8 hPa NW 7.6 km/h 13.0 km/h 31% 0.0 mm
15:20 34.1 °C 14.0 °C 1016.8 hPa WNW 1.8 km/h 13.0 km/h 30% 0.0 mm
15:25 33.8 °C 14.0 °C 1016.8 hPa NNW 1.8 km/h 13.0 km/h 30% 0.0 mm
15:30 34.4 °C 14.0 °C 1016.8 hPa East 1.8 km/h 7.6 km/h 30% 0.0 mm
15:35 34.8 °C 15.0 °C 1016.8 hPa NE 8.7 km/h 10.5 km/h 30% 0.0 mm
15:40 34.5 °C 15.0 °C 1016.8 hPa ENE 1.8 km/h 11.6 km/h 30% 0.0 mm
15:45 34.6 °C 15.0 °C 1016.8 hPa WNW 4.0 km/h 11.6 km/h 30% 0.0 mm
15:50 33.4 °C 13.0 °C 1016.8 hPa Calm   10.1 km/h 30% 0.0 mm
15:55 33.3 °C 14.0 °C 1016.8 hPa North 9.0 km/h 11.9 km/h 31% 0.0 mm
16:00 34.5 °C 15.0 °C 1016.8 hPa NW 2.6 km/h 11.9 km/h 30% 0.0 mm
16:05 34.3 °C 14.0 °C 1016.8 hPa NE 2.6 km/h 10.5 km/h 30% 0.0 mm
16:10 34.5 °C 15.0 °C 1016.8 hPa Calm   10.5 km/h 30% 0.0 mm
16:15 34.8 °C 15.0 °C 1016.8 hPa ENE 12.6 km/h 12.6 km/h 31% 0.0 mm
16:20 33.6 °C 14.0 °C 1016.8 hPa NE 6.9 km/h 13.0 km/h 31% 0.0 mm
16:25 32.8 °C 14.0 °C 1016.8 hPa North 4.7 km/h 13.0 km/h 32% 0.0 mm
16:30 32.4 °C 14.0 °C 1016.8 hPa North 10.5 km/h 14.0 km/h 32% 0.0 mm
16:32 32.3 °C 14.0 °C 1016.8 hPa Calm   14.0 km/h 33% 0.0 mm
16:37 32.4 °C 15.0 °C 1016.8 hPa Calm   14.0 km/h 34% 0.0 mm
16:42 33.1 °C 15.0 °C 1016.8 hPa Calm   7.6 km/h 33% 0.0 mm
16:47 33.2 °C 16.0 °C 1016.8 hPa Calm   6.4 km/h 35% 0.0 mm
16:52 33.4 °C 15.0 °C 1016.8 hPa NE 4.0 km/h 10.5 km/h 34% 0.0 mm
16:57 33.7 °C 15.0 °C 1016.8 hPa ENE 7.9 km/h 10.5 km/h 33% 0.0 mm
17:02 33.9 °C 15.0 °C 1016.1 hPa ENE 6.1 km/h 10.1 km/h 33% 0.0 mm
17:07 34.1 °C 16.0 °C 1016.1 hPa NNW 6.9 km/h 10.1 km/h 33% 0.0 mm
17:12 33.9 °C 15.0 °C 1016.1 hPa NE 6.1 km/h 12.2 km/h 33% 0.0 mm
17:17 33.8 °C 15.0 °C 1016.8 hPa North 9.3 km/h 12.2 km/h 32% 0.0 mm
17:22 33.8 °C 15.0 °C 1016.8 hPa Calm   11.6 km/h 32% 0.0 mm
17:27 34.5 °C 15.0 °C 1016.8 hPa WNW 1.4 km/h 11.6 km/h 31% 0.0 mm
17:32 34.7 °C 15.0 °C 1016.1 hPa NNE 7.9 km/h 8.7 km/h 31% 0.0 mm
17:37 34.7 °C 15.0 °C 1016.1 hPa NE 12.2 km/h 12.2 km/h 31% 0.0 mm
17:42 33.5 °C 17.0 °C 1016.1 hPa NNE 9.0 km/h 16.3 km/h 36% 0.0 mm
17:48 32.9 °C 18.0 °C 1016.1 hPa NW 9.3 km/h 17.7 km/h 39% 0.0 mm
17:53 32.6 °C 17.0 °C 1016.1 hPa NNE 19.5 km/h 19.5 km/h 39% 0.0 mm
17:58 32.2 °C 17.0 °C 1016.1 hPa NNE 9.3 km/h 19.8 km/h 40% 0.0 mm
18:03 31.9 °C 17.0 °C 1016.1 hPa North 9.3 km/h 19.8 km/h 40% 0.0 mm
18:08 31.8 °C 17.0 °C 1016.1 hPa North 13.7 km/h 25.9 km/h 41% 0.0 mm
18:13 31.6 °C 17.0 °C 1016.1 hPa North 16.6 km/h 25.9 km/h 42% 0.0 mm
18:18 31.6 °C 17.0 °C 1016.1 hPa ENE 20.1 km/h 20.1 km/h 41% 0.0 mm
18:23 31.6 °C 17.0 °C 1016.1 hPa North 10.1 km/h 20.1 km/h 42% 0.0 mm
18:28 31.6 °C 17.0 °C 1016.1 hPa North 15.8 km/h 20.1 km/h 40% 0.0 mm
18:33 31.3 °C 16.0 °C 1016.1 hPa NNE 20.1 km/h 20.6 km/h 40% 0.0 mm
18:38 31.3 °C 17.0 °C 1016.1 hPa NE 13.0 km/h 20.6 km/h 41% 0.0 mm
18:43 31.2 °C 16.0 °C 1016.1 hPa NE 14.0 km/h 20.6 km/h 40% 0.0 mm
18:48 31.1 °C 16.0 °C 1016.8 hPa NE 14.3 km/h 20.6 km/h 40% 0.0 mm
18:53 30.9 °C 16.0 °C 1016.8 hPa NNE 17.7 km/h 17.7 km/h 40% 0.0 mm
18:58 30.8 °C 16.0 °C 1016.8 hPa NE 12.6 km/h 736.9 km/h 41% 0.0 mm
19:03 30.7 °C 16.0 °C 1016.8 hPa NE 7.9 km/h 736.9 km/h 41% 0.0 mm
19:08 30.6 °C 18.0 °C 1016.8 hPa NNE 13.0 km/h 16.9 km/h 46% 0.0 mm
19:13 30.5 °C 18.0 °C 1016.8 hPa North 9.7 km/h 16.9 km/h 47% 0.0 mm
19:18 30.5 °C 18.0 °C 1016.8 hPa North 14.0 km/h 16.9 km/h 47% 0.0 mm
19:23 30.5 °C 18.0 °C 1016.8 hPa North 15.4 km/h 17.2 km/h 47% 0.0 mm
19:29 30.3 °C 18.0 °C 1016.8 hPa North 16.6 km/h 17.2 km/h 47% 0.0 mm
19:31 30.1 °C 18.0 °C 1016.8 hPa NNE 10.1 km/h 16.6 km/h 47% 0.0 mm
19:36 29.9 °C 18.0 °C 1016.8 hPa North 15.8 km/h 17.2 km/h 48% 0.0 mm
19:41 29.8 °C 18.0 °C 1016.8 hPa NE 9.7 km/h 17.7 km/h 48% 0.0 mm
19:46 29.6 °C 17.0 °C 1016.1 hPa NNE 13.7 km/h 17.7 km/h 47% 0.0 mm
19:51 29.4 °C 17.0 °C 1016.1 hPa North 10.1 km/h 17.2 km/h 47% 0.0 mm
19:56 29.3 °C 17.0 °C 1016.1 hPa North 12.2 km/h 16.9 km/h 48% 0.0 mm
20:01 29.1 °C 17.0 °C 1016.8 hPa North 7.9 km/h 17.2 km/h 47% 0.0 mm
20:06 29.0 °C 17.0 °C 1016.8 hPa NE 13.0 km/h 16.9 km/h 47% 0.0 mm
20:11 28.8 °C 17.0 °C 1016.8 hPa NNE 16.3 km/h 16.3 km/h 47% 0.0 mm
20:16 28.6 °C 17.0 °C 1016.1 hPa NNE 11.6 km/h 16.3 km/h 47% 0.0 mm
20:21 28.4 °C 16.0 °C 1016.1 hPa NE 12.6 km/h 19.5 km/h 46% 0.0 mm
20:27 28.2 °C 16.0 °C 1016.1 hPa NE 12.2 km/h 19.5 km/h 47% 0.0 mm
20:31 28.0 °C 16.0 °C 1016.8 hPa NE 12.2 km/h 13.7 km/h 48% 0.0 mm
20:37 27.9 °C 17.0 °C 1016.8 hPa NE 14.3 km/h 14.3 km/h 49% 0.0 mm
20:42 27.6 °C 17.0 °C 1016.8 hPa ENE 12.2 km/h 14.3 km/h 50% 0.0 mm
20:47 27.4 °C 17.0 °C 1016.8 hPa NE 9.3 km/h 14.0 km/h 51% 0.0 mm
20:48 27.4 °C 17.0 °C 1016.8 hPa North 9.7 km/h 13.7 km/h 51% 0.0 mm
20:53 27.2 °C 17.0 °C 1016.8 hPa NE 10.5 km/h 13.0 km/h 51% 0.0 mm
20:58 27.1 °C 17.0 °C 1016.8 hPa NE 9.0 km/h 14.8 km/h 52% 0.0 mm
21:03 27.0 °C 17.0 °C 1016.8 hPa NE 6.9 km/h 14.8 km/h 53% 0.0 mm
21:08 26.9 °C 17.0 °C 1016.8 hPa NE 9.3 km/h 12.6 km/h 54% 0.0 mm
21:13 26.8 °C 17.0 °C 1016.8 hPa NE 11.9 km/h 14.0 km/h 56% 0.0 mm
21:18 26.7 °C 17.0 °C 1016.8 hPa NE 11.6 km/h 14.0 km/h 56% 0.0 mm
21:23 26.6 °C 18.0 °C 1016.8 hPa NE 9.0 km/h 13.7 km/h 57% 0.0 mm
21:29 26.2 °C 18.0 °C 1016.8 hPa NE 10.1 km/h 13.7 km/h 59% 0.0 mm
21:34 26.0 °C 18.0 °C 1016.8 hPa NE 6.9 km/h 12.2 km/h 59% 0.0 mm
21:39 25.9 °C 18.0 °C 1016.8 hPa NE 9.0 km/h 12.2 km/h 60% 0.0 mm
21:44 25.6 °C 18.0 °C 1016.8 hPa Calm   10.1 km/h 60% 0.0 mm
21:49 25.3 °C 17.0 °C 1016.8 hPa North 4.7 km/h 9.3 km/h 61% 0.0 mm
21:54 25.1 °C 17.0 °C 1016.8 hPa NE 4.3 km/h 8.7 km/h 61% 0.0 mm
21:59 24.8 °C 17.0 °C 1016.8 hPa NE 4.3 km/h 8.7 km/h 63% 0.0 mm
22:04 24.6 °C 18.0 °C 1016.8 hPa NE 5.8 km/h 8.7 km/h 64% 0.0 mm
22:09 24.4 °C 17.0 °C 1016.8 hPa NE 7.9 km/h 9.0 km/h 64% 0.0 mm
22:14 24.2 °C 18.0 °C 1016.8 hPa NE 8.7 km/h 9.0 km/h 66% 0.0 mm
22:20 24.0 °C 18.0 °C 1016.8 hPa NE 6.1 km/h 10.1 km/h 67% 0.0 mm
22:25 23.9 °C 18.0 °C 1016.8 hPa NE 7.9 km/h 10.1 km/h 67% 0.0 mm
22:30 23.7 °C 17.0 °C 1016.8 hPa North 1.4 km/h 9.3 km/h 67% 0.0 mm
22:35 23.6 °C 18.0 °C 1016.1 hPa Calm   9.3 km/h 68% 0.0 mm
22:40 23.5 °C 18.0 °C 1016.1 hPa NE 6.4 km/h 9.0 km/h 68% 0.0 mm
22:45 23.5 °C 18.0 °C 1016.1 hPa NE 8.7 km/h 10.5 km/h 69% 0.0 mm
22:50 23.6 °C 18.0 °C 1016.8 hPa East 4.7 km/h 10.5 km/h 68% 0.0 mm
22:55 23.6 °C 18.0 °C 1016.8 hPa ENE 6.9 km/h 10.1 km/h 68% 0.0 mm
23:00 23.6 °C 18.0 °C 1016.8 hPa NE 5.5 km/h 10.1 km/h 68% 0.0 mm
23:05 23.5 °C 18.0 °C 1018.2 hPa NNE 6.4 km/h 9.3 km/h 68% 0.0 mm
23:10 23.4 °C 17.0 °C 1018.2 hPa NNE 7.6 km/h 9.3 km/h 68% 0.0 mm
23:15 23.2 °C 17.0 °C 1018.2 hPa NE 7.6 km/h 10.1 km/h 69% 0.0 mm
23:20 23.2 °C 17.0 °C 1016.8 hPa NE 10.1 km/h 11.6 km/h 69% 0.0 mm
23:25 23.2 °C 17.0 °C 1016.8 hPa NE 2.1 km/h 11.6 km/h 69% 0.0 mm
23:30 23.1 °C 17.0 °C 1016.8 hPa North 6.9 km/h 9.7 km/h 69% 0.0 mm
23:35 22.9 °C 17.0 °C 1016.8 hPa Calm   9.3 km/h 69% 0.0 mm
23:40 22.8 °C 17.0 °C 1016.8 hPa ENE 4.7 km/h 9.3 km/h 70% 0.0 mm
23:46 22.8 °C 17.0 °C 1016.8 hPa ENE 7.9 km/h 9.7 km/h 70% 0.0 mm
23:51 22.8 °C 17.0 °C 1016.8 hPa ENE 3.5 km/h 9.7 km/h 70% 0.0 mm
23:56 22.8 °C 17.0 °C 1016.8 hPa NE 1.4 km/h 13.0 km/h 70% 0.0 mm
Données Historique de Météo Turbie

Mise a jour : 23/06/2018 08:21:15
Généré par Cumulus 1.9.4 (1099)